H1 CPF 2 NER 2025 10 23 9 296 01 glonass135 H2 1600801 9135 41330 2025 10 23 0 0 0 2025 10 26 23 45 0 900 1 1 0 0 0 1 H9 10 0 60971 0.00000 0 3852206.367 16079979.673 19418378.383 10 0 60971 900.00000 0 3262732.685 18281459.753 17476081.941 10 0 60971 1800.00000 0 2899064.344 20268367.842 15194046.965 10 0 60971 2700.00000 0 2734651.246 21982434.796 12616484.378 10 0 60971 3600.00000 0 2732810.903 23373662.048 9793408.815 10 0 60971 4500.00000 0 2848498.438 24402312.795 6779671.448 10 0 60971 5400.00000 0 3030440.335 25040491.925 3633893.029 10 0 60971 6300.00000 0 3223541.234 25273246.943 417317.928 10 0 60971 7200.00000 0 3371460.877 25099142.253 -2807387.843 10 0 60971 8100.00000 0 3419250.565 24530281.525 -5977370.131 10 0 60971 9000.00000 0 3315935.537 23591776.489 -9030826.247 10 0 60971 9900.00000 0 3016931.763 22320684.332 -11908224.818 10 0 60971 10800.00000 0 2486192.599 20764458.773 -14553480.491 10 0 60971 11700.00000 0 1697992.453 18978980.801 -16915059.095 10 0 60971 12600.00000 0 638270.231 17026253.111 -18946990.499 10 0 60971 13500.00000 0 -694525.496 14971856.427 -20609768.608 10 0 60971 14400.00000 0 -2289126.221 12882275.843 -21871120.645 10 0 60971 15300.00000 0 -4121681.667 10822210.368 -22706630.818 10 0 60971 16200.00000 0 -6156536.520 8851979.062 -23100206.767 10 0 60971 17100.00000 0 -8347513.015 7025132.408 -23044380.588 10 0 60971 18000.00000 0 -10639645.295 5386368.350 -22540439.653 10 0 60971 18900.00000 0 -12971292.656 3969838.963 -21598385.903 10 0 60971 19800.00000 0 -15276543.117 2797916.831 -20236725.613 10 0 60971 20700.00000 0 -17487806.839 1880470.570 -18482094.827 10 0 60971 21600.00000 0 -19538491.335 1214677.368 -16368728.761 10 0 60971 22500.00000 0 -21365647.314 785377.813 -13937786.192 10 0 60971 23400.00000 0 -22912475.483 565955.691 -11236542.600 10 0 60971 24300.00000 0 -24130590.675 519703.562 -8317468.057 10 0 60971 25200.00000 0 -24981950.012 601614.915 -5237207.912 10 0 60971 26100.00000 0 -25440365.831 760526.082 -2055486.094 10 0 60971 27000.00000 0 -25492541.532 941516.857 1166047.931 10 0 60971 27900.00000 0 -25138588.267 1088468.237 4365006.536 10 0 60971 28800.00000 0 -24392001.944 1146669.459 7479463.099 10 0 60971 29700.00000 0 -23279102.244 1065364.701 10449140.422 10 0 60971 30600.00000 0 -21837957.540 800132.544 13216566.203 10 0 60971 31500.00000 0 -20116840.571 314998.363 15728174.069 10 0 60971 32400.00000 0 -18172279.005 -415809.014 17935329.889 10 0 60971 33300.00000 0 -16066781.368 -1406530.366 19795264.514 10 0 60971 34200.00000 0 -13866332.090 -2659035.098 21271895.824 10 0 60971 35100.00000 0 -11637758.710 -4162502.551 22336524.972 10 0 60971 36000.00000 0 -9446079.434 -5893640.529 22968393.877 10 0 60971 36900.00000 0 -7351940.149 -7817433.932 23155093.387 10 0 60971 37800.00000 0 -5409246.353 -9888394.578 22892814.004 10 0 60971 38700.00000 0 -3663087.681 -12052262.603 22186433.713 10 0 60971 39600.00000 0 -2148040.951 -14248090.930 21049440.185 10 0 60971 40500.00000 0 -886922.270 -16410628.114 19503687.542 10 0 60971 41400.00000 0 109959.534 -18472901.977 17578990.785 10 0 60971 42300.00000 0 845016.569 -20368897.373 15312564.134 10 0 60971 43200.00000 0 1333053.111 -22036216.770 12748312.562 10 0 60971 44100.00000 0 1600407.758 -23418612.233 9935988.948 10 0 60971 45000.00000 0 1683602.225 -24468281.968 6930232.266 10 0 60971 45900.00000 0 1627553.739 -25147833.901 3789505.017 10 0 60971 46800.00000 0 1483426.903 -25431832.265 574950.627 10 0 60971 47700.00000 0 1306216.718 -25307860.538 -2650806.337 10 0 60971 48600.00000 0 1152166.425 -24777054.499 -5824892.693 10 0 60971 49500.00000 0 1076131.241 -23854081.760 -8885426.516 10 0 60971 50400.00000 0 1129001.717 -22566567.910 -11772738.506 10 0 60971 51300.00000 0 1355297.963 -20953993.235 -14430549.429 10 0 60971 52200.00000 0 1791038.669 -19066106.741 -16807079.166 10 0 60971 53100.00000 0 2461976.900 -16960924.957 -18856064.521 10 0 60971 54000.00000 0 3382278.702 -14702400.608 -20537665.124 10 0 60971 54900.00000 0 4553701.340 -12357860.116 -21819239.453 10 0 60971 55800.00000 0 5965306.411 -9995318.376 -22675975.899 10 0 60971 56700.00000 0 7593720.085 -7680783.942 -23091367.147 10 0 60971 57600.00000 0 9403929.426 -5475667.566 -23057519.461 10 0 60971 58500.00000 0 11350580.999 -3434402.112 -22575291.949 10 0 60971 59400.00000 0 13379726.883 -1602372.312 -21654264.263 10 0 60971 60300.00000 0 15430944.572 -14239.310 -20312534.610 10 0 60971 61200.00000 0 17439741.739 1307272.043 -18576353.079 10 0 60971 62100.00000 0 19340145.223 2352074.867 -16479598.414 10 0 60971 63000.00000 0 21067366.180 3122884.187 -14063109.179 10 0 60971 63900.00000 0 22560430.417 3634838.911 -11373882.911 10 0 60971 64800.00000 0 23764664.639 3914600.214 -8464159.177 10 0 60971 65700.00000 0 24633935.604 3998966.399 -5390404.528 10 0 60971 66600.00000 0 25132549.551 3933064.242 -2212219.055 10 0 60971 67500.00000 0 25236733.593 3768194.211 1008814.408 10 0 60971 68400.00000 0 24935638.146 3559421.094 4210316.511 10 0 60971 69300.00000 0 24231819.388 3363011.846 7330310.487 10 0 60971 70200.00000 0 23141182.205 3233828.565 10308411.602 10 0 60971 71100.00000 0 21692386.349 3222786.082 13086984.719 10 0 60971 72000.00000 0 19925740.553 3374480.804 15612248.469 10 0 60971 72900.00000 0 17891630.301 3725090.217 17835305.648 10 0 60971 73800.00000 0 15648543.955 4300631.178 19713080.943 10 0 60971 74700.00000 0 13260778.308 5115650.329 21209148.751 10 0 60971 75600.00000 0 10795917.644 6172402.204 22294435.871 10 0 60971 76500.00000 0 8322189.573 7460550.602 22947786.049 10 0 60971 77400.00000 0 5905806.055 8957407.351 23156375.611 10 0 60971 78300.00000 0 3608398.669 10628700.482 22915972.019 10 0 60971 79200.00000 0 1484653.551 12429842.056 22231029.717 10 0 60971 80100.00000 0 -419756.456 14307645.044 21114620.434 10 0 60971 81000.00000 0 -2069856.871 16202419.847 19588197.971 10 0 60971 81900.00000 0 -3442603.731 18050364.821 17681200.432 10 0 60971 82800.00000 0 -4527611.192 19786152.333 15430496.001 10 0 60971 83700.00000 0 -5327343.751 21345602.974 12879681.387 10 0 60971 84600.00000 0 -5856764.593 22668336.074 10078245.205 10 0 60971 85500.00000 0 -6142454.441 23700284.804 7080611.571 10 0 60972 0.00000 0 -6221237.902 24395969.100 3945082.273 10 0 60972 900.00000 0 -6138375.462 24720429.632 732696.415 10 0 60972 1800.00000 0 -5945398.130 24650738.768 -2493965.426 10 0 60972 2700.00000 0 -5697677.577 24177024.385 -5672013.821 10 0 60972 3600.00000 0 -5451836.021 23302960.785 -8739490.286 10 0 60972 4500.00000 0 -5263107.520 22045705.243 -11636590.121 10 0 60972 5400.00000 0 -5182764.412 20435282.070 -14306842.523 10 0 60972 6300.00000 0 -5255719.936 18513439.887 -16698223.489 10 0 60972 7200.00000 0 -5518410.295 16332030.468 -18764178.553 10 0 60972 8100.00000 0 -5997047.274 13950977.887 -20464534.595 10 0 60972 9000.00000 0 -6706316.289 11435924.055 -21766282.583 10 0 60972 9900.00000 0 -7648575.487 8855650.194 -22644216.050 10 0 60972 10800.00000 0 -8813589.785 6279382.893 -23081413.373 10 0 60972 11700.00000 0 -10178810.927 3774097.692 -23069555.296 10 0 60972 12600.00000 0 -11710191.274 1401932.737 -22609072.589 10 0 60972 13500.00000 0 -13363496.578 -782180.219 -21709122.143 10 0 60972 14400.00000 0 -15086062.029 -2732569.938 -20387393.184 10 0 60972 15300.00000 0 -16818917.379 -4414480.948 -18669748.507 10 0 60972 16200.00000 0 -18499191.769 -5805263.120 -16589708.675 10 0 60972 17100.00000 0 -20062697.366 -6895048.413 -14187790.002 10 0 60972 18000.00000 0 -21446583.752 -7686889.172 -11510709.794 10 0 60972 18900.00000 0 -22591952.300 -8196354.844 -8610474.669 10 0 60972 19800.00000 0 -23446321.675 -8450606.485 -5543369.820 10 0 60972 20700.00000 0 -23965841.988 -8486990.010 -2368868.890 10 0 60972 21600.00000 0 -24117165.756 -8351208.958 851514.574 10 0 60972 22500.00000 0 -23878898.179 -8095154.801 4055412.171 10 0 60972 23400.00000 0 -23242566.787 -7774486.742 7180799.667 10 0 60972 24300.00000 0 -22213070.424 -7446063.111 10167187.452 10 0 60972 25200.00000 0 -20808589.035 -7165332.307 12956780.159 10 0 60972 26100.00000 0 -19059957.941 -6983792.706 15495583.894 10 0 60972 27000.00000 0 -17009532.187 -6946627.889 17734440.661 10 0 60972 27900.00000 0 -14709587.414 -7090616.179 19629970.981 10 0 60972 28800.00000 0 -12220322.613 -7442402.120 21145407.413 10 0 60972 29700.00000 0 -9607546.287 -8017202.602 22251303.657 10 0 60972 30600.00000 0 -6940140.486 -8818002.505 22926106.096 10 0 60972 31500.00000 0 -4287406.308 -9835274.702 23156576.925 10 0 60972 32400.00000 0 -1716399.411 -11047237.681 22938060.541 10 0 60972 33300.00000 0 710635.310 -12420642.002 22274587.449 10 0 60972 34200.00000 0 2938624.385 -13912054.809 21178812.706 10 0 60972 35100.00000 0 4921724.424 -15469590.881 19671788.757 10 0 60972 36000.00000 0 6624993.392 -17035019.795 17782575.500 10 0 60972 36900.00000 0 8025604.800 -18546162.566 15547693.502 10 0 60972 37800.00000 0 9113553.788 -19939478.438 13010429.373 10 0 60972 38700.00000 0 9891825.139 -21152733.724 10220005.371 10 0 60972 39600.00000 0 10376015.705 -22127640.341 7230628.429 10 0 60972 40500.00000 0 10593426.847 -22812352.187 4100436.532 10 0 60972 41400.00000 0 10581665.194 -23163712.855 890362.935 10 0 60972 42300.00000 0 10386811.127 -23149158.183 -2337059.073 10 0 60972 43200.00000 0 10061233.325 -22748191.480 -5518926.595 10 0 60972 44100.00000 0 9661143.083 -21953367.336 -8593207.355 10 0 60972 45000.00000 0 9243993.620 -20770740.909 -11499963.963 10 0 60972 45900.00000 0 8865836.363 -19219762.533 -14182536.660 10 0 60972 46800.00000 0 8578748.080 -17332621.354 -16588660.035 10 0 60972 47700.00000 0 8428439.555 -15153065.402 -18671490.624 10 0 60972 48600.00000 0 8452148.496 -12734747.933 -20390524.554 10 0 60972 49500.00000 0 8676906.814 -10139169.916 -21712386.944 10 0 60972 50400.00000 0 9118256.101 -7433305.638 -22611477.717 10 0 60972 51300.00000 0 9779465.633 -4687011.385 -23070461.754 10 0 60972 52200.00000 0 10651285.603 -1970325.926 -23080594.637 10 0 60972 53100.00000 0 11712245.350 649224.420 -22641878.711 10 0 60972 54000.00000 0 12929483.250 3109204.178 -21763047.602 10 0 60972 54900.00000 0 14260072.501 5354624.009 -20461380.679 10 0 60972 55800.00000 0 15652786.263 7339976.177 -18762352.211 10 0 60972 56700.00000 0 17050227.361 9030867.293 -16699123.018 10 0 60972 57600.00000 0 18391232.730 10405182.537 -14311885.283 10 0 60972 58500.00000 0 19613451.467 11453735.282 -11647073.895 10 0 60972 59400.00000 0 20655988.441 12180377.623 -8756460.040 10 0 60972 60300.00000 0 21462002.900 12601569.735 -5696144.807 10 0 60972 61200.00000 0 21981153.562 12745428.413 -2525472.446 10 0 60972 62100.00000 0 22171788.363 12650296.664 694115.853 10 0 60972 63000.00000 0 22002787.697 12362895.903 3900265.738 10 0 60972 63900.00000 0 21454984.552 11936139.383 7030908.553 10 0 60972 64800.00000 0 20522102.516 11426699.289 10025452.693 10 0 60972 65700.00000 0 19211172.576 10892429.816 12825945.232 10 0 60972 66600.00000 0 17542411.138 10389754.309 15378182.158 10 0 60972 67500.00000 0 15548563.809 9971125.745 17632746.796 10 0 60972 68400.00000 0 13273741.378 9682666.676 19545957.317 10 0 60972 69300.00000 0 10771795.112 9562087.248 21080705.946 10 0 60972 70200.00000 0 8104297.372 9636968.386 22207174.455 10 0 60972 71100.00000 0 5338209.550 9923482.283 22903412.695 10 0 60972 72000.00000 0 2543332.250 10425604.371 23155769.173 10 0 60972 72900.00000 0 -210358.362 11134850.814 22959165.255 10 0 60972 73800.00000 0 -2855379.263 12030554.004 22317207.100 10 0 60972 74700.00000 0 -5329304.895 13080666.276 21242132.215 10 0 60972 75600.00000 0 -7577121.652 14243060.153 19754590.352 10 0 60972 76500.00000 0 -9553275.160 15467272.528 17883261.441 10 0 60972 77400.00000 0 -11223325.238 16696621.342 15664316.308 10 0 60972 78300.00000 0 -12565139.276 17870607.147 13140729.039 10 0 60972 79200.00000 0 -13569573.703 18927499.366 10361452.924 10 0 60972 80100.00000 0 -14240614.440 19806998.467 7380474.986 10 0 60972 81000.00000 0 -14594969.999 20452861.298 4255766.917 10 0 60972 81900.00000 0 -14661134.134 20815377.707 1048152.787 10 0 60972 82800.00000 0 -14477957.673 20853592.238 -2179883.872 10 0 60972 83700.00000 0 -14092790.410 20537175.131 -5365429.368 10 0 60972 84600.00000 0 -13559272.622 19847861.599 -8446380.223 10 0 60972 85500.00000 0 -12934871.037 18780396.683 -11362668.803 10 0 60973 0.00000 0 -12278265.276 17342944.377 -14057448.445 10 0 60973 900.00000 0 -11646696.860 15556941.756 -16478214.866 10 0 60973 1800.00000 0 -11093395.542 13456405.553 -18577837.151 10 0 60973 2700.00000 0 -10665192.190 11086717.601 -20315482.187 10 0 60973 3600.00000 0 -10400421.069 8502942.099 -21657410.463 10 0 60973 4500.00000 0 -10327200.429 5767744.988 -22577629.218 10 0 60973 5400.00000 0 -10462164.135 2949003.133 -23058390.431 10 0 60973 6300.00000 0 -10809697.468 117203.648 -23090524.788 10 0 60973 7200.00000 0 -11361708.530 -2657257.888 -22673606.109 10 0 60973 8100.00000 0 -12097943.835 -5306767.827 -21815944.271 10 0 60973 9000.00000 0 -12986833.637 -7769062.035 -20534407.907 10 0 60973 9900.00000 0 -13986830.240 -9989564.774 -18854081.494 10 0 60973 10800.00000 0 -15048181.943 -11923403.041 -16807764.482 10 0 60973 11700.00000 0 -16115067.248 -13537014.470 -14435322.996 10 0 60973 12600.00000 0 -17127998.999 -14809283.937 -11782907.343 10 0 60973 13500.00000 0 -18026397.182 -15732163.972 -8902050.932 10 0 60973 14400.00000 0 -18751222.288 -16310755.507 -5848668.313 10 0 60973 15300.00000 0 -19247558.865 -16562847.923 -2681971.825 10 0 60973 16200.00000 0 -19467041.171 -16517939.774 536672.256 10 0 60973 17100.00000 0 -19370019.623 -16215782.943 3744926.220 10 0 60973 18000.00000 0 -18927377.642 -15704512.546 6880679.600 10 0 60973 18900.00000 0 -18121923.090 -15038441.848 9883241.426 10 0 60973 19800.00000 0 -16949296.176 -14275615.064 12694503.798 10 0 60973 20700.00000 0 -15418355.700 -13475220.631 15260055.096 10 0 60973 21600.00000 0 -13551026.936 -12694973.105 17530222.304 10 0 60973 22500.00000 0 -11381616.564 -11988572.869 19461023.346 10 0 60973 23400.00000 0 -8955621.855 -11403349.544 21015011.895 10 0 60973 24300.00000 0 -6328081.947 -10978187.284 22161999.212 10 0 60973 25200.00000 0 -3561537.768 -10741818.609 22879639.617 10 0 60973 26100.00000 0 -723683.205 -10711558.269 23153868.521 10 0 60973 27000.00000 0 2115197.105 -10892530.656 22979184.434 10 0 60973 27900.00000 0 4884899.065 -11277424.024 22358768.960 10 0 60973 28800.00000 0 7517970.278 -11846783.128 21304441.495 10 0 60973 29700.00000 0 9952271.458 -12569829.572 19836448.214 10 0 60973 30600.00000 0 12133322.463 -13405777.145 17983087.882 10 0 60973 31500.00000 0 14016335.586 -14305588.507 15780180.084 10 0 60973 32400.00000 0 15567851.241 -15214100.721 13270384.571 10 0 60973 33300.00000 0 16766907.272 -16072431.063 10502383.542 10 0 60973 34200.00000 0 17605692.286 -16820562.043 7529941.676 10 0 60973 35100.00000 0 18089654.974 -17399996.266 4410861.661 10 0 60973 36000.00000 0 18237064.319 -17756368.105 1205855.451 10 0 60973 36900.00000 0 18078039.026 -17841900.304 -2022646.243 10 0 60973 37800.00000 0 17653087.327 -17617599.815 -5211722.045 10 0 60973 38700.00000 0 17011219.512 -17055097.904 -8299200.331 10 0 60973 39600.00000 0 16207714.050 -16138054.695 -11224886.166 10 0 60973 40500.00000 0 15301633.206 -14863066.898 -13931749.189 10 0 60973 41400.00000 0 14353194.888 -13240038.878 -16367047.792 10 0 60973 42300.00000 0 13421113.493 -11292000.310 -18483366.358 10 0 60973 43200.00000 0 12560023.657 -9054377.466 -20239544.471 10 0 60973 44100.00000 0 11818096.871 -6573748.544 -21601479.565 10 0 60973 45000.00000 0 11234952.280 -3906135.385 -22542787.359 10 0 60973 45900.00000 0 10839949.924 -1114903.446 -23045307.683 10 0 60973 46800.00000 0 10650937.997 1731641.818 -23099446.613 10 0 60973 47700.00000 0 10673506.010 4562861.533 -22704349.303 10 0 60973 48600.00000 0 10900774.082 7308484.262 -21867901.304 10 0 60973 49500.00000 0 11313725.728 9901288.957 -20606559.545 10 0 60973 50400.00000 0 11882068.625 12279659.023 -18945017.381 10 0 60973 51300.00000 0 12565585.623 14389902.339 -16915711.222 10 0 60973 52200.00000 0 13315917.873 16188242.249 -14558179.147 10 0 60973 53100.00000 0 14078704.043 17642398.432 -11918284.590 10 0 60973 54000.00000 0 14795984.897 18732693.949 -9047320.628 10 0 60973 54900.00000 0 15408771.739 19452644.525 -6001012.459 10 0 60973 55800.00000 0 15859670.592 19809007.699 -2838437.517 10 0 60973 56700.00000 0 16095451.952 19821291.881 379115.940 10 0 60973 57600.00000 0 16069458.419 19520747.681 3589329.981 10 0 60973 58500.00000 0 15743749.459 18948885.148 6730055.387 10 0 60973 59400.00000 0 15090893.594 18155580.045 9740504.739 10 0 60973 60300.00000 0 14095333.010 17196849.000 12562417.854 10 0 60973 61200.00000 0 12754263.324 16132386.839 15141177.925 10 0 60973 62100.00000 0 11077991.213 15022968.960 17426857.736 10 0 60973 63000.00000 0 9089754.080 13927826.921 19375176.781 10 0 60973 63900.00000 0 6825007.966 12902106.398 20948351.692 10 0 60973 64800.00000 0 4330211.660 11994513.107 22115824.385 10 0 60973 65700.00000 0 1661155.527 11245244.547 22854854.461 10 0 60973 66600.00000 0 -1119097.713 10684293.715 23150964.644 10 0 60973 67500.00000 0 -3942577.061 10330195.729 22998230.577 10 0 60973 68400.00000 0 -6738976.285 10189270.170 22399408.832 10 0 60973 69300.00000 0 -9438331.048 10255391.640 21365899.732 10 0 60973 70200.00000 0 -11973690.515 10510299.272 19917544.426 10 0 60973 71100.00000 0 -14283673.531 10924433.500 18082258.603 10 0 60973 72000.00000 0 -16314803.454 11458266.337 15895508.291 10 0 60973 72900.00000 0 -18023524.419 12064070.450 13399636.279 10 0 60973 73800.00000 0 -19377814.421 12688053.480 10643050.822 10 0 60973 74700.00000 0 -20358326.998 13272768.060 7679291.305 10 0 60973 75600.00000 0 -20959012.844 13759695.686 4565988.446 10 0 60973 76500.00000 0 -21187194.440 14091894.524 1363739.169 10 0 60973 77400.00000 0 -21063090.025 14216597.867 -1865081.443 10 0 60973 78300.00000 0 -20618806.770 14087651.559 -5057547.020 10 0 60973 79200.00000 0 -19896845.919 13667685.138 -8151420.347 10 0 60973 80100.00000 0 -18948183.757 12929922.692 -11086381.581 10 0 60973 81000.00000 0 -17830010.624 11859554.785 -13805218.650 10 0 60973 81900.00000 0 -16603224.949 10454611.634 -16254955.093 10 0 60973 82800.00000 0 -15329789.697 8726299.300 -18387892.050 10 0 60973 83700.00000 0 -14070064.355 6698783.713 -20162543.201 10 0 60973 84600.00000 0 -12880226.199 4408431.072 -21544443.975 10 0 60973 85500.00000 0 -11809890.398 1902536.354 -22506819.271 10 0 60974 0.00000 0 -10900029.541 -762406.396 -23031097.055 10 0 60974 900.00000 0 -10181279.396 -3522820.835 -23107258.843 10 0 60974 1800.00000 0 -9672702.538 -6310459.833 -22734020.635 10 0 60974 2700.00000 0 -9381058.851 -9055015.712 -21918842.881 10 0 60974 3600.00000 0 -9300613.187 -11686817.037 -20677769.679 10 0 60974 4500.00000 0 -9413485.866 -14139501.408 -19035101.808 10 0 60974 5400.00000 0 -9690529.483 -16352553.603 -17022910.908 10 0 60974 6300.00000 0 -10092693.380 -18273604.540 -14680405.051 10 0 60974 7200.00000 0 -10572816.836 -19860396.831 -12053158.679 10 0 60974 8100.00000 0 -11077774.359 -21082336.816 -9192222.313 10 0 60974 9000.00000 0 -11550881.925 -21921570.330 -6153129.534 10 0 60974 9900.00000 0 -11934462.440 -22373539.312 -2994820.598 10 0 60974 10800.00000 0 -12172462.295 -22446997.958 221496.529 10 0 60974 11700.00000 0 -12213009.038 -22163489.522 3433525.957 10 0 60974 12600.00000 0 -12010802.827 -21556307.088 6579082.007 10 0 60974 13500.00000 0 -11529241.451 -20668982.889 9597283.093 10 0 60974 14400.00000 0 -10742189.889 -19553369.994 12429719.052 10 0 60974 15300.00000 0 -9635320.145 -18267396.861 15021570.146 10 0 60974 16200.00000 0 -8206964.912 -16872588.450 17322657.125 10 0 60974 17100.00000 0 -6468448.594 -15431456.979 19288403.070 10 0 60974 18000.00000 0 -4443880.687 -14004870.611 20880689.349 10 0 60974 18900.00000 0 -2169418.506 -12649509.081 22068590.034 10 0 60974 19800.00000 0 307972.048 -11415511.650 22828971.169 10 0 60974 20700.00000 0 2932208.413 -10344414.895 23146943.600 10 0 60974 21600.00000 0 5640168.075 -9467466.019 23016160.543 10 0 60974 22500.00000 0 8364066.226 -8804382.048 22438953.616 10 0 60974 23400.00000 0 11034037.779 -8362607.069 21426303.802 10 0 60974 24300.00000 0 13580818.315 -8137099.238 19997646.625 10 0 60974 25200.00000 0 15938413.860 -8110657.390 18180513.774 10 0 60974 26100.00000 0 18046649.126 -8254774.588 16010016.468 10 0 60974 27000.00000 0 19853488.203 -8530983.810 13528178.955 10 0 60974 27900.00000 0 21317030.519 -8892639.959 10783133.612 10 0 60974 28800.00000 0 22407097.781 -9287063.582 7828192.244 10 0 60974 29700.00000 0 23106344.464 -9657955.800 4720810.979 10 0 60974 30600.00000 0 23410844.145 -9947981.854 1521468.807 10 0 60974 31500.00000 0 23330126.146 -10101412.817 -1707517.944 10 0 60974 32400.00000 0 22886660.323 -10066712.100 -4903221.134 10 0 60974 33300.00000 0 22114811.581 -9798955.188 -8003341.181 10 0 60974 34200.00000 0 21059308.496 -9261978.043 -10947436.445 10 0 60974 35100.00000 0 19773291.497 -8430161.059 -13678116.052 10 0 60974 36000.00000 0 18316024.080 -7289771.116 -16142171.340 10 0 60974 36900.00000 0 16750365.056 -5839803.383 -18291622.566 10 0 60974 37800.00000 0 15140109.794 -4092286.089 -20084659.536 10 0 60974 38700.00000 0 13547313.762 -2072034.557 -21486457.377 10 0 60974 39600.00000 0 12029711.977 184135.534 -22469851.494 10 0 60974 40500.00000 0 10638343.316 2628702.736 -23015859.000 10 0 60974 41400.00000 0 9415479.435 5205187.917 -23114037.204 10 0 60974 42300.00000 0 8392944.517 7850282.424 -22762673.202 10 0 60974 43200.00000 0 7590895.146 10496267.269 -21968802.034 10 0 60974 44100.00000 0 7017109.753 13073622.329 -20748054.231 10 0 60974 45000.00000 0 6666815.427 15513716.960 -19124336.856 10 0 60974 45900.00000 0 6523057.168 17751470.384 -17129355.241 10 0 60974 46800.00000 0 6557591.881 19727871.884 -14801985.538 10 0 60974 47700.00000 0 6732267.549 21392256.843 -12187510.931 10 0 60974 48600.00000 0 7000827.878 22704245.257 -9336736.797 10 0 60974 49500.00000 0 7311065.155 23635263.442 -6305002.227 10 0 60974 50400.00000 0 7607229.771 24169587.196 -3151107.205 10 0 60974 51300.00000 0 7832594.462 24304864.577 63823.840 10 0 60974 52200.00000 0 7932065.120 24052098.096 3277520.367 10 0 60974 53100.00000 0 7854728.366 23435088.441 6427763.489 10 0 60974 54000.00000 0 7556228.920 22489364.070 9453580.595 10 0 60974 54900.00000 0 7000877.070 21260642.091 12296414.458 10 0 60974 55800.00000 0 6163397.806 19802885.002 14901245.078 10 0 60974 56700.00000 0 5030248.116 18176034.332 17217643.533 10 0 60974 57600.00000 0 3600446.708 16443515.247 19200738.528 10 0 60974 58500.00000 0 1885880.513 14669615.465 20812077.875 10 0 60974 59400.00000 0 -88926.264 12916846.788 22020369.136 10 0 60974 60300.00000 0 -2287572.799 11243398.195 22802085.750 10 0 60974 61200.00000 0 -4663042.482 9700785.689 23141927.219 10 0 60974 62100.00000 0 -7159413.944 8331796.089 23033124.405 10 0 60974 63000.00000 0 -9713953.600 7168810.018 22477583.551 10 0 60974 63900.00000 0 -12259505.082 6232573.931 21485865.357 10 0 60974 64800.00000 0 -14727078.252 5531472.702 20076998.247 10 0 60974 65700.00000 0 -17048531.749 5061333.700 18278127.924 10 0 60974 66600.00000 0 -19159238.336 4805771.311 16124008.349 10 0 60974 67500.00000 0 -21000622.360 4737058.248 13656342.383 10 0 60974 68400.00000 0 -22522463.183 4817487.740 10922983.409 10 0 60974 69300.00000 0 -23684867.494 5001169.704 7977012.364 10 0 60974 70200.00000 0 -24459826.804 5236185.207 4875707.451 10 0 60974 71100.00000 0 -24832293.484 5467007.785 1679426.430 10 0 60974 72000.00000 0 -24800728.875 5637088.272 -1549576.286 10 0 60974 72900.00000 0 -24377099.353 5691492.264 -4748373.794 10 0 60974 73800.00000 0 -23586319.921 5579476.665 -7854606.952 10 0 60974 74700.00000 0 -22465168.556 5256894.082 -10807714.924 10 0 60974 75600.00000 0 -21060717.477 4688321.046 -13550130.393 10 0 60974 76500.00000 0 -19428348.242 3848817.906 -16028414.584 10 0 60974 77400.00000 0 -17629435.448 2725244.156 -18194308.623 10 0 60974 78300.00000 0 -15728797.905 1317072.187 -20005679.815 10 0 60974 79200.00000 0 -13792025.725 -363335.903 -21427343.918 10 0 60974 80100.00000 0 -11882796.747 -2291000.698 -22431747.316 10 0 60974 81000.00000 0 -10060295.585 -4429135.835 -22999496.224 10 0 60974 81900.00000 0 -8376843.641 -6730462.338 -23119723.365 10 0 60974 82800.00000 0 -6875838.952 -9138971.612 -22790285.965 10 0 60974 83700.00000 0 -5590091.072 -11592063.085 -22017792.355 10 0 60974 84600.00000 0 -4540619.096 -14022967.009 -20817457.869 10 0 60974 85500.00000 0 -3735961.110 -16363351.210 -19212793.940 99